Wind_Gust
20 24 29 31 25 23 14 18 15 12 6 19 20 18 21 21 18 15 21 12 24 26 29 25 24 27 22 17 21 23 22 24 24 24 24 27 27 24 24 25 26 26 24 14 16 14 15 15 16 15 14 15 16 16 17 19 18 20 22 20 18 19 19 21 22 19 22 21 18 17 16 15 14 13 14 14 13 14 14 14 14 14 13 13 12 12
20 25 26 16 9 15 18 17 21 8 6 21 22 23 18 22 23 22 24 13 19 22 20 19 26 29 25 18 20 21 24 25 27 29 28 28 27 27 27 27 27 24 10 12 12 14 15 16 17 15 14 15 18 16 17 18 19 18 18 19 19 20 20 20 18 19 19 17 19 19 17 16 14 13 15 14 12 15 14 13 13 13 12 12 13 12
28 32 18 13 10 17 16 18 22 18 6 6 25 23 19 22 13 11 17 13 17 20 17 19 28 30 22 17 17 23 26 29 30 30 30 31 29 29 28 27 26 18 17 16 16 15 16 16 17 18 15 15 16 17 18 18 17 18 20 19 19 19 20 19 19 20 19 17 18 18 17 19 15 10 13 15 14 14 14 12 12 12 12 13 13 13
28 24 14 17 12 19 21 21 23 21 12 8 15 26 29 18 25 24 18 13 16 22 12 18 24 20 10 8 15 21 26 23 21 24 22 19 25 29 29 26 25 26 21 20 20 21 17 17 18 18 17 17 17 17 17 19 19 22 20 20 20 20 19 20 20 17 18 18 16 15 18 16 15 15 17 15 14 12 13 14 12 12 12 13 14 13
18 13 16 20 13 20 24 24 26 24 20 13 10 14 23 17 19 12 22 17 13 8 8 19 23 14 12 12 16 18 14 8 15 19 19 15 17 20 17 18 24 26 23 21 20 19 18 19 19 19 16 17 18 17 18 19 22 21 21 21 20 21 20 19 20 23 21 20 18 16 16 18 18 15 13 15 13 10 13 13 12 13 13 14 14 13
12 11 22 23 18 20 24 28 32 25 19 15 14 12 13 15 16 6 18 21 21 22 15 23 20 29 11 14 18 20 20 18 15 18 23 24 20 16 21 24 21 19 19 19 20 20 18 17 18 17 19 18 18 17 17 18 19 20 22 21 20 22 21 22 22 22 21 21 23 21 20 18 16 16 16 16 16 11 10 13 12 14 14 14 14 13
16 9 18 28 22 18 23 24 25 23 21 14 16 16 10 10 13 14 23 26 24 32 24 19 26 18 9 18 18 20 21 23 18 17 20 18 22 23 26 26 25 25 21 18 17 17 18 19 20 20 19 18 18 17 17 18 18 19 20 20 21 19 19 21 21 21 20 18 18 21 21 21 21 21 13 10 11 14 12 12 13 14 13 13 14 13
17 15 14 21 26 24 23 27 27 30 22 20 8 13 13 9 14 13 20 21 10 10 10 12 23 19 18 21 18 19 24 26 24 19 21 21 21 26 28 26 23 22 21 21 20 21 21 20 20 21 19 18 18 18 18 19 18 19 18 17 16 19 19 18 22 20 17 20 20 19 20 22 21 20 18 15 14 13 12 13 12 13 13 13 12 13
26 17 17 21 24 27 28 16 17 24 26 18 9 14 15 13 8 10 15 15 8 16 22 22 11 25 23 12 11 21 21 25 28 29 27 27 27 28 27 26 25 23 22 20 20 21 22 22 20 19 20 19 18 18 20 20 19 17 16 16 18 19 21 19 19 20 20 18 20 19 20 20 17 18 20 19 14 14 11 14 12 13 13 13 13 14
22 18 15 16 24 28 15 15 20 27 25 18 10 8 9 8 7 7 11 14 9 18 27 23 24 34 17 10 14 19 22 26 29 30 31 33 33 33 32 28 26 22 22 21 18 19 20 19 18 19 19 19 19 18 18 18 18 16 16 19 19 22 22 25 23 20 18 19 18 18 19 22 21 19 17 16 15 13 12 14 13 12 12 12 12 12
10 16 14 19 25 16 18 14 20 23 22 11 15 13 11 9 10 7 8 8 11 20 19 16 22 23 25 17 20 28 30 25 24 26 28 29 29 28 30 30 28 23 21 20 19 18 19 18 19 20 22 21 19 18 18 18 19 17 18 21 22 23 27 27 25 22 20 21 20 18 21 25 25 22 21 19 15 14 13 14 12 12 12 11 12 12
9 13 19 15 12 15 21 15 18 24 25 15 21 20 16 11 9 10 8 8 21 23 10 14 22 17 31 18 16 20 17 26 27 27 29 28 30 32 28 29 26 24 22 21 20 20 21 21 21 21 22 23 22 20 21 24 20 18 18 21 24 24 27 23 20 22 21 21 21 19 21 22 21 22 21 19 17 13 15 14 15 12 12 12 13 13
14 12 11 13 18 22 30 23 19 25 25 24 21 21 24 23 21 20 18 25 27 23 9 9 19 16 33 14 16 25 22 23 27 29 29 28 29 27 24 25 24 26 24 25 22 23 24 24 25 24 23 23 24 23 21 23 20 19 19 21 23 22 24 21 18 22 19 18 20 22 23 20 19 17 18 18 17 13 15 15 15 14 14 12 13 13
13 8 12 14 19 26 27 34 32 31 35 31 32 31 29 29 27 23 22 14 12 12 9 12 11 25 12 18 15 20 26 26 27 28 22 20 22 23 25 24 25 26 26 27 23 24 26 25 23 24 25 26 24 23 24 22 19 18 19 21 20 20 19 17 17 18 19 17 21 22 24 21 19 17 16 16 18 15 15 14 15 14 13 12 13 14
20 18 23 23 28 25 33 30 26 18 33 30 8 27 19 13 26 21 25 28 21 20 12 6 21 21 21 16 16 24 24 24 19 13 9 12 16 18 22 23 24 25 25 26 26 23 25 25 23 24 24 23 22 23 24 23 21 20 19 21 22 22 21 21 22 20 21 20 19 18 22 19 18 18 15 14 14 16 16 14 15 14 14 15 14 15
14 13 14 20 7 27 27 20 14 16 20 17 13 12 16 23 12 14 15 14 18 19 14 19 22 12 19 9 9 9 10 9 15 14 15 15 18 21 23 26 27 28 28 28 26 24 23 23 22 24 24 23 21 22 25 23 21 20 18 22 23 24 24 22 21 22 22 20 20 19 19 18 18 16 16 15 14 14 16 15 16 16 15 15 15 14
16 19 12 26 13 27 26 20 17 22 39 31 21 34 22 12 15 14 7 9 7 12 20 10 13 12 15 10 8 8 10 11 15 18 19 18 21 24 25 26 26 28 29 30 30 25 24 23 23 24 23 25 21 22 24 23 21 22 23 22 22 21 19 19 20 20 19 19 20 19 19 19 16 16 17 19 17 17 15 15 16 17 17 16 15 15
28 17 13 32 21 17 24 20 17 21 13 23 31 20 10 9 11 11 18 9 14 23 18 12 23 13 15 25 9 10 13 13 18 21 23 20 22 27 27 28 30 31 29 29 27 21 22 23 24 23 25 22 23 23 23 23 19 22 21 21 22 21 21 20 19 19 19 20 19 19 19 17 15 16 17 18 18 17 18 15 15 17 18 16 15 16
15 16 17 25 22 19 19 22 21 15 11 26 25 12 35 23 19 7 14 16 20 20 15 13 8 12 16 15 10 12 16 17 18 18 20 23 27 27 26 28 27 25 26 27 28 26 26 25 28 26 25 23 22 21 24 24 20 21 19 20 20 19 20 21 19 19 19 17 18 17 19 19 17 16 17 18 17 16 18 17 16 16 17 17 16 17
11 13 18 14 19 19 23 30 35 32 9 9 14 24 11 13 9 14 18 10 17 9 9 12 11 25 19 19 17 19 21 22 21 21 24 29 30 29 29 30 30 31 31 30 30 27 26 26 25 26 25 25 25 23 24 23 21 20 21 22 19 19 19 19 20 20 18 16 17 17 18 16 18 19 19 18 18 16 16 16 17 18 17 17 17 17
11 7 17 27 12 20 31 37 32 30 28 22 28 27 20 15 10 12 9 9 14 15 15 12 16 17 16 17 15 18 23 23 27 29 27 26 27 26 28 32 31 32 31 31 31 28 26 26 25 24 21 23 23 22 23 24 24 22 22 21 21 23 20 20 19 21 16 17 18 19 20 19 18 18 18 17 17 17 16 16 17 16 17 18 18 18
10 8 15 21 21 28 25 16 10 19 19 18 21 18 19 21 20 23 20 9 8 10 14 15 20 14 18 7 14 15 16 22 28 30 26 22 27 28 29 28 30 31 29 29 29 27 27 26 26 25 25 24 23 23 23 24 23 22 20 20 21 23 21 20 21 23 20 15 18 18 19 20 18 19 18 19 17 16 17 17 17 16 16 17 18 18
11 9 13 22 22 20 10 14 14 14 13 14 20 15 16 12 14 20 17 12 7 8 10 9 6 16 11 7 8 9 14 16 14 12 14 20 23 24 27 27 27 26 28 28 26 25 24 24 24 25 26 24 23 23 23 22 23 23 21 21 21 24 22 22 23 22 22 20 19 19 18 21 20 19 18 18 17 18 18 17 16 15 17 19 18 17
9 9 16 16 15 9 7 10 13 16 15 15 15 12 18 25 19 17 17 13 16 9 7 7 8 16 9 7 8 9 11 14 17 16 17 21 22 25 27 26 27 25 24 24 23 23 25 22 21 22 24 25 22 22 22 21 23 24 22 23 23 24 21 21 21 22 24 22 21 20 19 18 19 20 18 18 17 19 17 17 15 15 17 18 18 19
16 8 13 23 24 16 15 18 20 14 23 26 23 17 19 13 10 8 10 10 12 11 11 12 12 12 8 11 8 9 13 16 18 17 20 25 23 25 25 25 25 24 24 24 24 24 22 23 24 25 24 24 23 21 22 23 24 25 25 26 25 20 22 23 21 21 25 25 24 19 20 17 17 19 19 19 18 18 18 16 16 15 18 18 19 19
8 6 11 25 25 26 26 31 38 34 39 28 13 17 14 18 15 18 20 13 18 7 8 12 15 17 11 8 6 9 13 14 15 19 18 22 26 28 25 24 26 26 26 25 23 23 25 24 20 20 20 20 21 21 21 22 24 23 24 23 18 20 21 24 20 22 24 24 23 20 20 19 17 18 19 19 18 18 17 17 16 17 16 19 21 19
7 4 4 9 23 28 23 14 13 14 20 32 18 20 17 13 14 11 12 12 21 9 11 17 15 12 12 8 9 12 14 18 21 22 26 25 24 27 25 25 21 22 26 27 26 26 21 20 22 20 20 22 21 20 21 22 24 24 20 19 18 20 20 20 20 23 25 22 21 23 21 22 20 20 19 18 18 16 16 16 16 18 19 19 20 20
6 10 9 11 13 15 13 13 19 21 22 14 18 17 11 13 10 12 15 20 12 18 14 15 8 10 15 11 14 15 15 17 19 22 23 25 27 29 28 23 17 20 22 22 25 26 22 21 22 22 22 23 23 22 22 21 22 25 25 22 19 20 20 18 20 24 26 24 19 20 18 16 16 17 17 17 17 17 17 17 17 18 18 19 20 20
12 14 8 9 12 13 9 19 24 25 21 20 22 16 16 12 13 17 16 10 13 14 20 11 11 12 13 9 11 14 14 18 18 21 21 23 26 26 28 25 23 25 25 26 28 26 24 22 22 22 25 25 24 23 23 21 20 22 21 25 22 20 21 21 22 23 25 24 21 18 18 19 16 16 17 17 18 18 19 19 18 19 19 18 18 18
9 15 10 10 7 11 13 16 23 26 21 23 26 23 20 16 18 19 17 10 16 8 9 9 12 19 11 7 11 13 14 14 17 18 22 25 27 29 28 27 24 23 25 24 24 26 26 25 24 24 26 24 26 25 24 21 21 24 25 25 22 21 19 21 20 23 23 22 19 18 19 20 17 18 18 19 19 20 20 20 19 19 19 19 19 19
12 15 8 8 11 11 7 12 21 24 22 27 23 23 19 20 20 19 16 9 6 12 7 7 10 15 11 7 8 9 16 17 17 20 25 25 28 28 30 29 27 24 25 25 25 27 26 25 24 25 24 24 26 25 25 24 23 21 23 24 22 21 23 21 19 20 23 24 21 21 20 20 19 21 21 19 19 19 21 20 19 19 19 19 19 19
11 11 7 7 12 11 7 16 16 20 19 18 17 15 18 16 17 12 18 15 13 20 8 6 12 16 10 8 10 13 19 23 22 22 23 25 27 27 28 27 27 27 26 26 28 28 28 25 25 25 25 25 25 25 25 23 21 23 22 21 20 21 24 21 19 20 21 25 23 21 20 20 21 21 21 20 21 20 19 19 19 19 19 19 19 18
12 9 10 9 14 8 6 9 17 19 19 14 14 21 22 17 11 12 8 7 17 12 13 12 20 10 9 13 16 15 20 22 25 24 24 22 25 26 26 27 26 26 28 29 29 29 30 29 27 26 25 23 24 24 27 25 23 23 23 21 19 20 22 21 20 21 21 22 22 20 19 20 21 21 21 20 20 19 19 20 19 19 19 19 18 17
6 6 8 7 18 8 11 14 14 23 19 18 10 8 18 22 19 18 17 16 11 12 13 12 10 11 10 13 15 18 20 24 25 24 21 25 27 24 26 26 27 27 25 25 27 29 28 28 25 25 24 22 21 22 23 24 24 21 22 21 18 19 19 22 21 22 23 22 20 19 19 20 21 21 20 19 19 19 19 19 19 18 17 18 18 18
7 7 6 8 18 14 11 14 20 20 14 9 6 9 8 7 9 15 9 8 8 8 8 9 8 9 11 11 9 12 16 15 19 25 24 25 25 29 30 29 30 30 30 28 28 27 26 26 23 21 22 23 23 20 21 22 23 24 21 21 20 18 22 20 25 21 22 23 21 20 19 20 20 21 21 20 19 19 19 19 19 19 18 18 18 19
6 7 9 12 12 12 17 20 26 14 8 6 8 8 7 8 8 15 12 7 5 6 7 8 8 9 8 8 8 11 15 17 17 19 23 24 23 27 31 30 30 30 32 30 29 25 26 26 26 24 20 21 24 21 19 23 23 24 23 23 22 20 20 22 23 24 23 23 22 20 20 21 21 21 20 20 19 19 20 19 20 19 18 17 15 13
11 8 12 15 9 21 12 9 10 7 8 7 7 9 11 13 15 14 17 8 5 6 7 6 7 8 8 9 12 13 15 17 15 13 10 22 24 23 23 24 26 25 24 23 24 21 20 23 26 29 30 29 24 25 20 21 26 27 23 23 18 20 21 22 21 24 24 23 23 21 20 21 22 21 21 20 20 20 19 19 17 16 16 15 15 14
15 13 10 17 9 10 18 16 16 11 13 7 8 7 7 8 6 7 14 8 6 7 8 9 12 11 10 12 15 18 19 19 15 17 17 15 21 21 20 16 17 18 20 19 18 20 21 22 24 25 26 24 25 26 24 20 22 23 23 21 21 22 20 20 21 23 24 25 23 21 22 23 24 23 22 22 22 21 19 18 17 18 18 17 15 15
11 13 11 18 13 9 14 18 13 13 10 9 9 8 6 7 8 8 11 10 8 7 9 11 14 13 14 17 18 20 18 13 13 14 22 18 20 20 20 16 18 20 21 24 26 25 26 26 29 26 23 28 28 24 24 27 24 23 24 24 24 21 23 23 23 25 27 28 29 29 28 25 24 24 22 20 20 20 21 19 17 15 14 15 14 13
17 13 12 18 12 8 12 13 9 10 14 4 7 8 7 6 7 10 18 13 8 7 9 11 15 18 15 17 16 10 14 12 13 8 14 22 23 21 24 23 22 21 21 22 22 25 25 25 24 23 26 26 28 27 26 23 25 22 24 23 21 23 25 24 24 23 25 21 20 20 21 22 22 22 23 22 19 19 20 19 18 16 17 15 18 18
14 13 15 10 7 6 10 10 8 9 7 6 8 9 6 7 10 13 14 10 8 10 9 12 15 18 17 15 12 13 7 6 10 11 10 16 18 18 18 20 23 25 25 24 23 20 26 27 29 30 30 27 26 26 25 27 27 27 26 27 27 24 21 25 23 21 21 19 20 21 22 21 21 22 20 22 23 21 22 23 24 23 22 20 18 18
8 6 5 8 12 8 6 13 9 9 10 8 9 10 7 8 12 10 10 7 7 9 9 10 13 15 17 14 9 8 6 10 12 8 12 18 20 19 18 15 15 16 16 18 21 24 26 24 24 23 22 21 27 27 27 27 28 29 29 26 25 23 22 23 23 22 20 21 22 22 22 21 18 20 22 21 22 22 19 16 19 21 21 20 19 17
11 8 5 7 7 7 11 15 10 16 4 7 16 8 7 14 12 10 7 5 9 7 7 8 12 15 17 15 8 9 8 10 9 10 13 15 16 15 17 17 21 22 21 20 21 21 26 24 24 26 25 25 25 25 27 27 27 25 28 30 25 23 24 24 22 21 22 22 22 21 21 20 21 19 17 19 20 21 20 19 20 18 19 19 17 17
5 10 7 6 11 10 9 11 10 8 11 8 7 10 8 8 8 9 9 8 7 7 5 5 7 10 12 12 12 9 7 9 9 9 13 11 11 13 14 14 17 18 19 21 24 23 22 25 24 24 22 23 23 23 24 26 26 26 22 19 18 20 22 22 21 21 22 21 21 22 21 21 21 20 18 20 21 21 22 21 21 21 21 20 19 18
12 8 9 7 5 8 8 8 7 7 9 9 5 8 6 6 5 7 5 8 8 7 6 7 9 9 10 10 9 9 9 7 10 11 12 14 15 17 17 18 20 21 22 22 20 20 21 24 24 23 22 22 23 22 22 22 25 24 25 21 22 25 26 23 22 23 22 22 22 22 21 20 21 21 21 22 23 22 21 20 21 21 19 20 20 19
5 5 5 7 9 5 6 8 8 7 7 10 6 6 7 8 6 6 8 12 11 8 6 10 7 7 9 9 9 8 9 8 9 10 10 11 12 13 14 15 15 17 18 18 19 20 19 21 24 26 26 22 20 20 20 21 23 26 21 20 23 25 26 26 23 21 23 22 22 23 24 23 20 20 21 21 20 20 21 22 22 21 20 21 20 20
6 5 5 8 6 10 13 6 9 9 9 10 11 7 5 6 8 8 9 10 9 9 9 8 8 8 7 8 9 9 7 7 8 9 10 12 13 14 15 16 16 18 22 22 22 20 21 20 22 21 22 22 19 20 19 16 15 18 19 22 22 25 25 23 22 22 22 25 23 21 23 25 23 21 21 20 19 19 20 21 21 21 21 22 22 21
6 6 7 7 4 6 11 6 7 8 8 9 8 10 10 13 12 9 7 7 8 8 9 9 7 9 7 9 7 7 9 6 9 9 10 11 13 15 16 16 18 17 19 19 20 20 21 22 22 21 21 22 19 18 19 17 18 18 21 21 22 25 25 23 23 25 24 25 24 24 24 24 18 23 23 22 20 20 19 20 21 22 23 25 25 25
10 10 5 7 7 9 6 7 8 9 10 9 7 5 7 8 10 9 10 9 8 11 11 11 12 10 10 10 6 6 7 9 9 9 9 11 12 14 16 17 19 20 20 18 18 19 22 21 22 23 23 19 18 19 19 18 17 20 22 22 22 23 24 24 22 21 22 22 22 22 21 20 24 23 24 22 20 18 20 22 21 20 19 18 21 23
7 8 7 8 9 8 7 6 9 9 9 7 8 11 11 10 8 9 9 9 11 11 9 10 11 10 10 11 8 6 7 8 7 8 9 11 13 14 15 17 18 19 18 17 19 18 18 19 21 22 20 19 19 20 19 19 17 19 22 24 24 23 24 23 25 22 22 22 22 22 20 19 20 20 22 23 21 18 11 6 5 13 21 20 11 10
9 6 7 7 8 6 5 8 7 7 6 6 8 11 9 9 7 8 8 8 9 10 8 8 9 9 11 11 9 8 7 7 7 8 9 10 11 13 16 18 19 20 18 18 18 16 18 18 18 18 18 18 18 18 19 18 18 19 20 22 23 22 22 22 24 22 21 21 20 23 22 22 20 20 21 21 21 20 19 17 9 7 7 9 14 14
Wind_Speed
8 10 12 14 12 12 9 11 6 7 1 12 12 11 11 11 9 9 13 7 15 14 17 15 15 17 14 9 11 13 13 14 15 15 13 14 14 12 14 15 16 16 14 9 10 9 10 10 9 9 8 9 10 10 11 11 11 11 11 11 11 10 11 11 11 10 10 10 8 8 7 7 6 6 6 5 4 5 4 5 5 5 5 6 5 5
9 11 13 10 4 9 11 10 12 2 1 13 13 13 8 12 11 13 13 7 10 11 10 12 16 18 16 10 12 12 15 15 16 16 16 16 15 14 17 17 17 14 5 8 8 8 10 9 11 9 8 9 11 10 10 11 11 11 12 11 10 10 11 11 9 9 9 7 6 6 6 7 6 6 6 6 5 5 5 5 6 6 5 5 6 5
12 14 9 7 5 10 9 11 14 11 2 2 11 11 9 10 6 6 10 7 8 10 7 12 16 17 14 10 10 13 15 15 17 18 17 17 16 16 16 17 16 11 10 9 9 10 9 11 11 10 8 9 10 10 11 11 11 11 12 11 11 10 10 9 10 10 9 7 8 7 7 9 7 3 5 6 6 6 6 5 5 4 5 6 6 6
13 11 7 10 7 12 13 13 15 12 6 2 7 12 13 9 12 10 9 8 9 8 4 10 13 9 4 1 8 12 14 12 13 16 15 13 16 18 18 16 15 16 13 12 12 12 11 11 11 10 10 10 9 10 10 11 11 11 11 11 12 11 11 10 10 8 10 10 8 6 9 8 7 6 7 7 7 6 5 5 4 4 5 6 6 6
9 7 9 13 8 13 14 15 17 11 9 6 4 7 10 9 10 4 10 8 8 1 1 11 11 5 5 4 6 9 8 3 9 12 11 7 9 13 11 11 14 16 15 12 12 12 11 11 11 11 10 10 10 10 10 11 12 9 12 12 12 12 12 10 10 12 12 10 7 7 7 8 9 8 5 6 5 3 4 5 5 4 5 6 7 6
4 5 14 14 11 13 15 15 18 13 8 6 8 6 8 9 10 2 11 12 8 9 7 14 5 10 5 7 9 9 9 10 9 11 14 15 13 9 12 15 14 11 12 12 12 12 11 10 10 10 12 11 10 10 10 10 11 12 12 12 12 9 10 10 13 14 12 11 12 10 8 7 6 8 7 8 8 5 4 5 5 6 6 7 7 6
6 4 12 17 14 11 15 13 16 14 9 6 5 10 5 5 8 9 15 14 10 12 11 11 11 3 2 9 9 10 12 14 10 11 13 12 13 12 15 15 13 15 12 11 11 11 11 11 11 12 12 11 11 10 10 10 11 12 11 11 8 8 10 12 11 12 10 9 10 11 11 11 10 10 6 5 4 5 5 5 6 6 6 7 7 6
7 6 9 14 16 13 12 13 15 18 10 7 1 8 7 4 8 8 12 12 3 5 4 7 9 6 6 9 10 11 14 15 15 13 14 13 14 16 18 13 12 11 13 13 13 13 13 13 12 13 12 11 10 10 10 11 10 12 11 8 9 9 9 10 12 11 9 11 11 11 11 10 8 7 8 8 7 5 5 6 6 6 6 6 6 6
17 9 11 13 15 12 12 8 11 16 10 5 4 8 9 7 3 5 8 7 2 8 9 10 5 8 8 3 5 12 11 14 17 18 17 17 17 18 17 14 15 14 14 13 12 13 14 14 12 12 12 12 11 10 11 11 10 10 9 9 11 11 11 11 12 12 12 10 8 8 9 9 7 9 9 9 7 6 5 8 6 7 6 6 6 6
9 11 9 10 12 12 7 8 12 17 11 10 5 3 3 3 1 2 4 6 3 7 12 12 12 11 6 4 6 10 11 14 15 17 18 20 21 20 19 18 16 12 13 13 11 11 12 12 9 11 12 12 11 10 10 11 10 9 8 11 11 15 13 14 15 12 12 12 10 9 9 10 9 10 8 7 7 7 5 6 7 6 5 5 5 6
5 10 8 7 11 7 10 8 12 15 14 5 9 6 5 4 3 1 2 1 3 7 8 10 14 11 8 7 8 12 12 12 12 13 15 17 18 17 18 19 16 14 12 10 12 11 11 10 10 13 14 13 11 11 11 10 10 9 10 13 14 15 14 16 15 14 12 13 12 10 12 15 15 14 11 8 6 7 7 6 6 6 5 4 5 5
1 7 8 5 7 7 13 7 11 15 17 8 7 8 7 4 3 3 1 1 6 7 4 7 13 11 12 7 6 9 9 15 15 16 17 17 19 19 17 16 16 15 13 12 12 11 13 13 13 13 14 14 13 12 13 13 11 11 10 12 15 15 16 11 10 11 12 11 12 11 11 12 13 14 12 11 10 7 8 7 7 5 5 5 6 6
4 5 5 7 10 14 15 12 9 14 15 12 10 9 11 7 4 5 5 8 9 6 3 3 12 6 15 2 5 14 13 14 17 14 16 17 18 17 14 15 14 15 15 14 13 10 12 14 13 15 14 13 15 13 14 14 12 11 12 14 15 14 15 11 11 13 11 9 9 12 13 13 11 10 11 11 10 7 7 6 7 6 6 5 6 6
4 4 6 8 11 13 15 15 13 14 16 16 14 13 12 10 9 7 8 1 3 1 3 5 6 9 3 7 7 11 16 16 16 16 14 13 13 14 14 13 14 15 16 15 14 11 15 14 14 15 14 15 14 14 13 13 11 10 11 13 13 13 11 9 9 11 11 10 12 13 14 12 10 9 8 8 9 8 7 6 7 7 6 6 6 6
9 8 10 13 10 14 17 14 14 8 16 13 4 12 8 2 4 5 7 9 8 7 4 1 7 4 10 5 9 13 14 14 10 7 2 3 6 10 12 13 15 15 16 15 15 14 14 15 15 14 14 13 13 15 14 13 12 12 11 12 14 14 13 13 11 11 13 11 12 11 12 11 7 9 8 7 7 7 7 7 7 6 6 7 6 7
8 4 6 12 1 16 15 12 6 8 9 7 2 2 5 8 1 4 1 4 7 7 4 6 4 2 7 3 4 3 3 3 7 6 7 7 9 12 12 14 15 16 16 16 16 13 14 14 14 13 14 13 12 15 13 14 11 12 11 13 15 15 15 13 13 13 12 10 12 10 10 11 8 8 8 7 6 6 7 8 8 8 7 7 7 6
5 5 7 15 8 15 16 12 8 12 12 12 8 14 8 5 4 4 2 4 3 3 6 2 3 3 4 2 2 1 4 5 8 10 11 10 12 14 14 14 15 16 17 17 17 14 15 15 14 15 14 14 13 13 14 14 13 14 14 13 14 14 12 12 12 12 11 10 13 11 12 12 9 9 10 9 9 9 8 8 8 8 8 8 7 7
11 6 8 17 13 9 15 13 11 13 2 7 10 8 5 3 4 1 5 1 4 8 3 3 11 6 6 7 2 4 6 7 10 13 14 13 13 15 14 14 16 18 18 18 17 14 12 14 16 14 14 13 14 14 15 15 13 13 12 13 13 13 12 10 11 11 10 12 11 12 11 9 8 8 8 9 10 9 9 8 8 8 8 8 7 7
6 6 7 16 14 11 12 14 12 8 6 12 11 5 12 6 7 0 1 5 7 6 3 4 3 4 7 4 2 6 9 9 10 11 12 14 15 16 14 16 16 16 15 15 17 15 14 15 15 15 15 15 14 13 15 14 11 13 11 12 12 12 12 12 9 11 11 11 10 9 9 10 10 9 8 8 8 8 10 9 8 8 8 8 8 8
3 2 6 8 10 11 12 13 14 14 4 5 7 9 1 2 0 5 1 1 4 2 2 4 5 7 7 7 8 12 12 13 12 12 15 18 19 15 14 16 18 18 18 18 17 16 14 15 16 17 16 15 15 14 15 15 12 13 13 12 11 9 10 11 13 11 11 10 10 9 9 10 9 9 10 9 9 8 9 9 9 10 9 9 8 8
2 2 5 11 6 10 11 12 14 14 13 9 12 10 5 3 2 2 2 1 4 3 4 2 5 5 4 5 7 10 11 11 14 15 14 14 15 15 16 17 18 19 18 18 18 17 16 16 16 16 13 12 13 13 14 14 14 14 13 13 12 13 8 9 10 12 9 9 10 12 11 11 10 10 9 9 8 9 9 8 9 8 8 9 9 9
0 1 5 8 8 12 12 8 6 12 11 8 9 7 9 10 8 10 5 2 1 2 2 4 6 1 7 2 7 8 6 11 14 15 13 13 14 15 15 17 17 17 18 18 18 17 15 16 16 15 15 13 14 14 15 14 14 14 12 12 12 12 10 9 9 10 10 9 10 12 11 12 10 10 10 10 8 9 9 8 9 9 9 10 9 9
2 1 4 9 9 8 4 8 7 8 8 6 10 5 8 4 4 7 5 3 1 1 2 2 2 2 3 1 1 3 5 8 8 6 7 10 14 15 15 16 16 16 17 17 16 14 12 15 13 13 16 15 15 14 15 14 14 13 13 12 12 12 10 11 11 9 9 10 9 10 10 12 11 10 10 10 8 10 9 9 9 8 9 9 9 9
3 1 6 6 7 4 2 5 8 10 9 8 7 6 8 11 10 7 6 2 3 3 2 1 1 1 2 2 2 3 5 7 7 9 10 11 12 14 16 17 16 16 15 15 12 11 13 14 13 13 15 15 13 14 14 13 14 14 13 13 13 13 12 10 10 11 11 11 11 10 9 9 11 12 11 10 9 11 10 9 8 8 9 9 9 9
3 2 4 9 8 5 7 8 9 7 10 10 9 7 11 5 4 1 1 4 2 3 1 1 3 1 3 4 2 1 6 8 10 10 11 14 13 14 15 15 14 15 15 15 15 15 14 15 16 15 15 14 14 13 13 13 14 14 15 15 15 12 13 13 11 12 14 14 13 11 11 10 9 11 11 11 10 11 10 9 8 7 9 9 9 9
2 1 3 10 10 11 10 12 16 15 18 11 6 9 8 11 9 9 8 4 6 1 3 4 3 2 2 2 1 4 6 8 8 11 11 12 16 16 14 13 15 15 14 15 14 15 16 15 12 12 13 12 12 12 13 13 14 14 15 14 11 11 13 15 10 12 13 13 13 11 12 11 10 11 12 11 10 11 10 9 9 9 8 10 11 10
1 0 1 2 10 13 11 5 7 7 8 13 10 13 10 8 8 4 3 2 8 3 3 9 8 5 6 3 3 5 7 10 12 13 14 14 15 15 15 14 13 13 14 18 17 15 13 12 15 13 13 13 13 12 12 13 14 14 12 12 11 11 10 10 12 12 13 12 12 13 12 12 11 11 11 10 10 9 9 9 9 10 10 9 11 10
2 4 4 6 8 4 6 7 11 13 12 8 11 11 7 7 4 6 5 6 6 5 5 5 2 3 8 4 6 7 8 8 10 12 13 14 15 16 16 14 13 13 14 14 16 17 14 14 14 13 14 15 13 13 13 12 12 15 15 13 11 12 11 9 11 13 14 13 10 11 10 8 9 9 9 9 9 10 9 9 9 9 9 10 10 10
5 5 2 3 6 8 3 9 16 14 13 11 14 10 9 7 7 9 5 2 8 5 8 2 2 6 7 2 4 7 7 9 10 12 13 14 15 16 17 15 15 16 17 17 17 17 14 14 14 14 16 15 15 15 14 12 10 13 12 15 11 11 12 12 13 12 14 13 11 9 10 9 8 8 9 10 10 10 10 10 9 10 10 9 9 8
2 6 4 6 3 6 8 8 15 17 13 15 17 16 12 10 10 8 7 3 7 3 3 4 4 10 3 1 3 6 8 8 8 10 12 15 17 18 18 18 15 16 17 16 16 18 16 16 15 15 15 15 16 16 15 12 11 12 14 15 13 13 11 11 11 13 13 13 10 10 11 11 9 10 10 10 10 11 10 10 10 10 10 10 10 10
5 1 4 4 5 5 3 8 14 16 15 16 16 16 13 12 11 11 9 4 2 7 4 3 6 6 1 1 3 5 9 9 9 12 15 16 17 18 19 19 16 16 17 17 17 17 17 16 15 15 14 15 16 16 15 14 13 12 12 14 13 12 13 12 11 11 13 14 12 11 11 11 10 10 11 10 10 10 11 10 9 9 10 10 10 10
5 3 2 1 3 4 3 10 11 14 13 12 11 10 11 11 10 5 4 5 6 10 2 1 6 4 2 1 4 7 11 13 13 13 14 14 17 17 18 16 18 17 17 17 18 18 17 16 16 16 16 16 16 16 15 14 14 13 12 12 11 11 13 11 10 11 11 14 13 12 11 10 11 11 11 11 11 10 10 10 10 10 10 9 10 9
4 3 2 2 3 2 2 5 11 13 10 6 7 12 13 11 6 6 2 2 10 3 3 5 9 3 1 4 7 8 11 12 14 14 14 14 16 17 17 16 13 17 18 17 18 19 19 18 17 16 16 15 15 14 14 13 11 13 12 12 10 11 12 12 11 11 12 12 12 11 10 11 11 11 11 10 10 9 9 10 10 10 10 10 9 9
1 2 2 1 2 2 6 9 9 10 8 5 3 1 11 13 11 10 9 9 6 6 3 2 4 4 2 6 8 11 12 12 13 14 13 13 14 15 16 16 17 16 14 16 17 17 16 16 14 11 11 9 12 14 13 12 10 9 10 11 10 11 10 12 12 12 13 12 11 11 10 10 11 11 11 10 10 9 10 10 10 9 8 9 9 9
3 2 1 0 2 4 6 8 7 8 2 3 2 1 1 2 5 8 4 3 3 3 3 3 3 4 5 5 3 6 9 9 11 15 15 15 15 16 18 18 19 19 19 18 17 17 16 16 14 11 9 10 10 11 12 11 10 11 11 12 11 9 10 11 14 12 12 13 12 11 10 11 11 11 11 10 10 9 10 10 10 10 9 9 9 9
2 2 2 2 2 3 5 6 5 2 2 2 3 4 2 2 3 8 7 3 0 0 2 3 2 3 3 4 3 5 8 9 10 11 15 15 15 16 18 17 19 19 20 17 17 16 17 15 15 13 10 10 10 10 10 10 10 11 11 11 10 10 9 12 13 13 12 13 12 11 10 11 11 11 11 10 10 10 10 10 10 10 9 8 7 6
6 1 1 4 3 5 1 2 2 1 2 3 3 4 3 4 7 4 4 3 1 1 2 1 2 2 2 2 4 6 8 9 8 7 5 14 15 15 14 15 16 15 15 15 15 13 12 14 15 16 17 16 14 12 10 10 11 12 13 11 8 9 9 10 11 13 13 13 13 12 11 11 12 11 11 11 11 10 10 10 9 8 7 8 8 8
8 6 3 3 1 0 7 6 4 2 3 1 3 2 2 2 2 3 3 3 2 1 1 3 5 5 4 6 7 9 11 9 7 8 9 9 14 14 12 11 11 11 11 12 12 11 12 13 14 14 11 11 11 13 13 12 10 10 12 12 10 10 9 9 11 12 14 14 13 12 11 11 11 12 12 11 12 11 10 9 8 9 8 8 7 8
5 3 4 2 3 1 4 5 2 2 1 1 3 3 2 1 3 2 3 4 1 2 4 5 7 7 7 9 10 12 8 4 3 5 11 11 13 13 13 10 10 11 12 13 15 15 15 15 16 14 13 15 15 12 13 14 13 12 12 13 13 12 12 11 12 14 15 15 14 15 13 13 12 12 11 11 11 11 11 10 9 7 6 7 7 7
6 3 1 7 3 1 2 3 2 0 2 1 2 2 3 2 3 4 7 3 3 1 3 6 8 10 9 10 9 4 1 1 1 2 7 13 15 13 13 12 12 12 12 14 13 15 15 14 13 13 15 16 15 15 15 14 14 14 12 12 12 12 11 9 8 8 8 10 10 9 10 9 11 12 11 10 9 7 8 8 7 8 9 7 8 9
5 3 5 4 2 2 4 2 1 1 2 2 3 4 2 3 1 4 3 2 2 2 3 5 8 9 9 9 6 3 1 1 4 5 3 9 10 12 10 10 12 13 14 14 14 13 13 13 14 15 18 16 15 14 14 14 14 14 13 13 15 13 11 12 10 11 10 10 10 11 11 10 11 12 11 12 12 11 11 10 10 9 8 7 6 6
2 1 0 1 3 3 1 3 1 0 1 3 3 5 2 2 3 3 2 1 2 4 4 4 7 8 10 8 3 2 1 4 6 2 5 11 13 11 10 8 9 10 10 11 13 14 13 14 13 13 14 13 14 14 14 14 14 14 14 14 14 14 12 13 13 12 11 11 12 13 12 12 10 11 11 11 11 11 10 8 8 8 8 7 7 9
4 2 1 2 1 1 1 4 2 5 0 3 10 1 1 1 2 1 3 1 2 3 2 3 6 9 10 7 3 3 2 3 4 4 7 9 9 9 9 9 11 12 12 11 12 13 14 12 13 13 13 12 13 12 13 14 15 14 13 15 14 13 14 14 12 11 11 10 10 10 11 11 11 9 8 9 10 12 11 9 9 9 9 9 9 9
2 0 1 0 2 2 2 2 1 1 5 4 3 3 3 3 2 2 2 3 1 1 1 1 2 4 7 7 6 4 2 3 3 4 7 6 6 8 8 8 9 12 10 12 14 13 13 13 12 12 13 13 13 13 13 14 13 12 11 10 10 10 12 13 12 11 11 11 12 12 11 11 11 10 9 11 11 11 11 11 10 10 9 10 9 8
6 3 1 2 2 1 1 2 1 2 4 4 1 3 2 2 1 1 1 3 4 2 2 2 4 4 5 5 4 4 4 2 5 5 6 7 8 10 10 10 12 12 13 13 12 12 13 13 14 12 12 11 13 12 12 12 13 13 14 11 12 13 14 13 12 11 11 11 12 12 11 10 10 10 11 11 12 11 10 11 11 10 9 9 9 9
2 1 2 1 3 2 0 1 4 2 3 5 1 1 2 2 1 2 1 5 5 3 1 4 2 3 4 4 4 3 3 4 4 5 4 5 6 7 8 9 9 10 11 10 11 12 11 12 13 14 14 11 11 9 9 9 11 15 12 11 13 13 15 14 13 12 12 10 10 12 13 12 10 10 11 11 9 10 10 11 11 9 9 9 9 9
2 2 2 1 1 1 3 4 5 5 5 5 6 3 1 2 4 3 4 4 4 3 4 3 3 3 2 3 1 1 0 2 2 3 4 5 6 8 9 10 10 11 13 13 12 12 10 12 11 11 11 11 10 9 9 9 7 8 11 11 12 14 14 13 12 12 12 12 12 12 12 14 11 10 10 10 9 8 9 9 10 9 10 10 10 10
1 1 1 2 0 1 3 1 3 3 3 4 3 5 5 7 7 5 2 2 3 3 4 4 1 4 1 3 2 1 2 0 1 2 4 5 6 8 9 9 10 10 11 12 12 12 12 12 12 12 12 10 9 10 10 9 9 10 9 10 12 14 14 13 13 13 13 14 13 12 12 12 14 14 11 10 10 9 9 9 9 10 11 12 12 12
4 5 0 3 1 3 2 3 3 4 5 5 3 1 3 4 5 5 5 4 4 6 6 6 6 4 4 4 2 2 3 1 1 1 3 5 6 7 8 9 11 12 12 11 11 12 12 13 13 14 13 11 10 11 11 10 10 11 13 12 12 12 14 13 12 12 13 11 11 11 11 10 12 11 11 11 9 8 9 9 9 9 9 10 10 11
1 3 1 2 3 2 1 1 4 2 3 1 4 6 6 5 4 4 4 5 6 6 4 5 5 5 4 5 3 1 3 2 1 2 4 4 5 7 9 9 10 11 11 10 11 11 11 12 13 14 12 10 11 11 11 11 10 11 13 13 13 12 11 12 13 12 11 11 11 11 10 9 9 10 10 11 10 8 4 5 2 5 9 9 7 6
4 1 1 2 1 2 0 2 1 2 2 1 3 5 4 4 3 3 3 4 5 5 3 3 3 4 6 6 4 3 3 2 2 2 3 4 5 6 8 10 11 11 10 10 10 10 11 10 10 10 11 10 10 10 10 10 11 11 11 12 13 12 11 13 12 11 8 9 9 11 11 10 10 9 10 10 10 9 8 7 3 6 7 3 9 9
Wind_Direction
160 189 192 201 204 190 179 188 203 25 168 149 174 177 186 184 182 196 196 164 189 182 205 195 199 205 211 178 181 188 192 206 210 211 213 213 212 209 216 215 216 219 219 201 197 178 179 180 178 178 177 177 175 171 168 171 172 174 171 164 163 167 172 174 170 164 164 165 156 152 147 131 124 120 120 119 139 146 146 152 145 135 133 129 113 104
182 211 212 199 144 166 179 182 217 307 347 164 173 184 181 190 192 193 194 165 192 189 193 188 196 210 210 183 188 184 191 205 208 212 215 216 212 211 213 215 219 221 194 181 168 174 178 179 180 173 176 176 175 169 169 174 175 175 171 169 167 170 176 176 167 159 158 133 143 134 137 133 132 135 144 144 141 140 136 135 132 126 118 101 97 96
199 214 196 158 160 160 169 178 210 222 167 199 182 183 182 194 180 170 200 170 177 205 196 180 201 207 202 182 183 184 192 203 206 211 213 211 211 213 215 219 221 214 204 184 189 185 184 182 184 184 184 190 182 173 177 178 170 176 178 175 171 173 174 167 160 155 144 127 121 138 141 138 125 124 137 133 129 130 129 120 107 101 100 99 92 91
202 213 159 167 165 168 170 182 202 217 239 213 187 178 194 157 174 191 201 178 180 197 167 177 202 203 59 344 196 197 197 205 207 215 222 220 217 216 215 214 215 217 210 202 196 196 189 183 185 191 195 196 183 172 171 174 175 181 184 183 175 172 167 158 146 126 101 91 87 131 140 134 132 135 124 114 118 117 109 94 82 78 89 90 86 80
195 162 154 170 175 173 174 179 192 209 209 223 250 197 180 167 199 217 169 175 155 4 172 161 197 227 205 173 192 206 202 206 211 213 219 228 229 223 223 222 219 219 214 205 203 202 195 192 193 196 197 192 185 173 170 171 183 189 189 186 175 166 155 143 123 110 101 98 120 117 97 102 101 100 104 103 104 90 103 105 85 76 75 84 85 79
179 161 164 177 175 184 174 182 195 192 206 209 228 224 189 170 187 140 133 147 176 199 186 165 165 220 163 207 195 185 196 212 206 201 210 216 216 206 215 220 218 219 215 206 205 202 195 193 191 196 200 190 182 176 171 174 184 189 191 185 172 156 139 123 112 110 121 148 143 131 129 128 126 131 137 144 149 143 124 100 98 80 68 74 76 71
177 110 184 177 179 180 184 189 189 190 199 190 202 202 226 214 180 150 158 168 186 201 180 202 205 191 147 210 202 189 195 208 205 208 206 208 216 215 223 222 216 218 212 204 203 194 188 194 197 199 195 182 176 174 170 177 183 184 185 178 150 115 98 104 113 138 143 141 148 151 153 153 151 147 142 121 114 129 119 110 97 86 69 65 74 72
180 172 183 183 181 183 188 191 183 189 185 199 111 173 188 189 180 172 169 187 170 46 89 200 225 228 200 215 195 192 199 209 210 213 212 211 212 218 223 216 212 212 211 205 201 192 190 191 199 200 191 178 173 168 171 180 176 178 175 147 104 88 98 108 133 164 155 154 157 160 157 155 144 152 152 140 124 119 113 91 80 83 72 69 69 74
176 179 180 182 188 189 196 181 163 186 192 198 136 165 182 189 157 155 181 186 141 178 193 191 149 224 230 109 166 178 199 213 213 215 217 219 219 221 222 219 218 213 209 198 198 195 191 189 195 198 186 179 165 166 179 176 170 160 141 104 99 110 123 141 153 153 163 160 152 154 142 142 146 138 130 131 127 104 95 96 83 76 76 71 65 69
192 194 179 184 189 195 164 158 171 186 181 228 131 147 141 133 170 175 169 179 148 193 209 181 181 215 206 141 170 180 202 207 209 213 217 218 219 220 221 222 220 211 211 203 195 191 192 187 183 186 172 166 168 170 166 159 150 136 118 116 120 139 146 152 156 168 167 155 155 153 152 141 131 129 126 125 119 111 97 88 90 90 82 77 75 69
171 195 166 183 196 178 162 174 172 185 203 90 147 157 136 145 186 103 44 113 140 220 214 161 187 211 221 188 184 174 204 189 195 208 217 218 220 221 219 218 215 209 199 192 190 185 186 175 180 177 168 168 163 165 154 147 141 133 130 138 150 153 156 171 169 160 157 160 160 160 159 149 143 139 134 130 115 125 118 104 94 91 89 85 87 85
107 160 176 193 177 170 182 161 185 185 205 170 188 184 151 136 142 156 143 222 212 222 143 183 181 191 226 184 196 201 194 196 190 199 203 206 209 211 208 210 211 207 197 192 186 182 179 175 177 169 168 169 165 154 152 153 143 137 139 151 157 155 160 160 155 162 166 167 161 154 149 145 148 149 146 143 141 138 121 121 113 106 105 97 92 91
216 187 159 163 185 186 184 177 179 191 201 208 190 186 183 161 162 168 169 196 214 208 96 150 157 180 227 248 174 199 207 205 204 199 202 204 207 202 195 198 203 203 200 193 190 184 183 179 171 172 171 171 166 157 153 152 144 143 146 151 153 154 158 144 156 163 160 160 160 154 152 151 144 152 143 138 134 124 118 125 121 123 115 111 104 101
197 145 190 183 182 198 189 184 169 189 199 202 194 187 187 167 182 183 180 174 96 71 38 169 168 231 61 237 219 203 208 205 205 210 210 202 192 184 180 184 196 199 199 197 193 189 188 182 172 172 169 171 164 158 152 149 143 147 147 147 144 148 134 140 164 163 161 163 162 156 157 149 148 139 133 130 127 130 134 129 125 123 117 112 113 113
163 177 201 183 192 183 199 203 181 198 188 198 204 195 203 189 187 154 182 180 186 166 104 178 166 215 168 192 166 203 211 213 212 218 73 94 160 169 173 181 191 195 196 194 194 191 188 178 169 169 166 167 163 159 158 152 154 145 143 144 147 148 146 177 161 164 164 163 149 148 149 141 145 136 120 116 128 133 126 120 116 110 111 114 115 111
200 186 152 197 107 176 198 198 160 153 176 215 159 154 211 211 352 158 135 132 135 130 127 170 208 174 180 44 340 3 26 213 205 200 177 163 158 160 171 185 194 195 192 193 194 189 185 174 167 167 165 166 160 160 160 153 149 144 145 151 154 155 156 164 171 168 160 157 148 140 130 140 134 118 111 113 116 113 117 118 116 112 111 111 110 109
173 219 141 182 232 188 197 180 188 181 182 179 172 198 195 74 100 99 55 32 55 135 204 100 244 238 312 281 86 63 152 185 180 186 186 174 169 173 182 187 189 191 190 191 193 187 179 172 171 171 166 166 158 158 157 154 152 148 150 152 154 153 155 164 164 160 153 145 144 139 141 139 127 114 125 132 129 127 120 115 114 115 115 114 114 112
169 159 161 174 203 210 191 190 196 205 54 121 206 176 80 59 20 180 159 145 174 189 176 156 197 179 170 188 92 147 161 169 185 183 186 175 171 181 187 185 188 190 191 191 189 182 175 175 171 168 170 166 165 160 152 151 147 149 152 153 149 152 156 167 158 148 147 148 141 134 129 119 115 113 116 123 128 130 121 111 113 119 121 119 117 114
212 141 177 188 179 183 177 188 202 222 226 205 195 101 184 179 205 76 142 169 170 188 154 194 260 272 203 196 131 194 184 183 191 179 171 176 184 189 184 186 187 185 183 186 186 180 176 172 174 170 168 166 160 155 150 147 139 146 149 149 146 160 166 166 149 143 144 143 137 131 125 118 112 117 126 125 128 124 121 122 123 118 117 117 116 114
248 170 151 196 188 166 177 191 198 189 202 320 130 181 344 344 99 149 221 49 170 174 158 161 183 219 199 226 180 198 198 183 175 177 188 189 190 183 177 181 183 183 185 185 186 183 175 174 172 170 166 165 160 152 147 143 139 139 144 140 154 169 164 154 141 142 141 138 130 121 115 109 112 125 131 135 135 123 118 124 124 122 120 119 117 121
195 341 156 186 183 152 193 194 203 186 170 175 191 185 159 223 349 352 103 206 193 167 198 175 198 225 199 208 200 204 196 189 175 183 194 196 189 180 176 178 181 184 184 185 185 177 171 170 168 166 154 157 160 151 144 144 142 139 143 144 150 158 150 141 143 141 129 128 129 128 123 120 127 132 135 135 126 116 120 127 124 121 124 122 124 128
154 157 163 149 163 195 198 186 191 178 180 183 194 182 180 164 172 192 192 90 262 196 178 172 229 145 201 138 214 216 199 183 191 189 191 185 176 179 181 181 179 183 185 184 182 173 168 165 165 164 157 158 153 147 148 145 141 142 136 136 144 147 158 143 131 138 134 134 135 126 123 127 132 137 139 133 126 121 131 128 122 127 125 123 129 132
210 151 143 176 188 182 112 144 180 162 167 174 194 166 184 177 198 200 193 172 126 56 73 61 343 237 98 14 291 253 202 204 187 171 158 168 179 181 181 181 182 182 182 181 176 166 163 162 162 160 161 158 151 148 148 147 145 141 136 135 143 149 149 141 139 138 127 128 119 119 126 134 137 137 137 130 130 133 131 124 124 129 126 128 130 129
174 233 140 96 96 91 31 134 158 168 150 165 207 177 173 195 199 199 213 106 199 127 188 157 222 250 87 26 303 244 230 186 172 178 160 168 175 180 178 179 178 178 177 169 161 159 161 159 153 154 155 154 151 150 149 149 145 138 137 139 142 144 145 139 142 144 135 128 127 130 130 133 138 139 137 135 138 134 129 128 128 128 124 128 132 129
186 263 158 134 155 150 126 145 172 186 197 204 190 180 192 150 126 137 133 81 250 187 281 251 209 212 84 356 53 169 165 170 169 166 159 160 171 175 175 175 174 169 164 162 162 161 154 157 160 160 156 154 153 151 149 148 144 141 144 143 145 142 144 149 149 148 140 135 134 135 134 134 134 139 143 139 138 132 127 128 130 129 128 130 131 130
284 136 178 159 167 171 165 174 182 183 196 186 169 155 192 170 152 153 208 164 230 96 199 232 259 258 353 22 76 142 149 156 167 168 170 162 166 169 168 167 172 168 167 163 155 154 160 159 153 149 151 147 149 151 150 148 143 144 146 139 132 138 147 153 146 143 138 136 137 138 143 145 144 143 139 135 133 133 130 131 132 130 131 135 134 134
165 196 275 247 187 185 189 141 55 100 141 187 172 172 178 196 168 146 76 154 213 148 208 230 255 317 299 125 189 191 171 165 166 167 166 166 165 164 166 167 167 168 166 164 161 160 156 153 152 149 145 149 149 150 149 143 143 143 138 127 137 139 139 141 144 144 139 137 139 141 150 150 146 142 138 138 133 127 129 131 133 137 137 139 138 138
265 271 237 217 243 254 93 132 138 171 173 165 160 177 160 173 191 167 190 199 106 143 248 244 149 221 268 189 194 192 189 173 170 167 164 165 165 165 165 159 155 160 163 160 161 163 161 157 152 151 151 149 150 149 151 147 138 143 144 137 139 141 140 147 148 148 141 140 141 141 145 137 134 136 131 127 127 130 131 134 135 136 136 138 138 139
259 264 238 183 237 207 223 147 152 161 167 162 181 181 180 170 175 195 214 121 160 202 234 336 144 207 262 332 183 179 185 179 174 172 166 162 160 160 162 154 158 162 164 167 166 161 157 159 157 154 158 155 149 152 152 144 135 143 133 149 141 146 149 147 145 146 140 138 137 131 131 130 124 121 124 126 130 132 136 138 136 137 139 139 135 135
254 257 214 196 187 178 187 195 158 161 157 165 183 189 187 163 186 193 211 174 209 233 3 309 280 256 278 320 195 164 161 164 167 164 157 161 164 164 166 164 158 162 163 163 162 161 164 163 160 156 153 153 152 154 154 147 146 142 143 154 149 150 150 146 146 142 136 132 132 132 135 133 131 133 133 136 140 141 139 138 137 139 139 140 137 134
203 240 127 170 168 147 166 189 175 158 158 174 175 192 180 178 183 191 206 189 346 299 261 331 296 295 310 51 132 131 150 151 161 164 165 164 164 167 170 172 161 162 164 163 165 165 167 168 164 162 158 158 159 159 156 153 152 151 138 150 154 150 153 146 139 136 135 129 131 132 134 135 136 136 141 144 140 138 139 138 138 139 138 137 138 137
188 256 114 161 171 125 118 172 181 151 160 162 173 183 170 174 184 178 202 200 181 226 174 334 296 278 76 126 124 160 155 159 162 170 166 167 170 170 172 176 175 168 167 165 167 169 165 163 162 163 162 163 163 160 155 148 151 153 145 145 149 150 150 144 134 128 130 130 132 137 137 137 139 143 142 142 140 139 138 137 139 139 139 138 139 140
209 194 198 189 164 99 77 155 146 129 117 139 201 192 173 176 178 155 264 201 219 175 152 218 243 31 302 154 147 166 168 166 166 171 169 166 171 173 174 177 175 178 176 172 172 172 168 165 167 166 166 163 160 154 148 139 144 159 149 147 146 146 149 139 126 125 126 129 132 136 136 140 142 140 139 140 138 135 136 139 139 139 142 144 142 139
269 224 252 202 164 94 106 146 152 145 170 177 83 313 169 174 161 167 197 203 194 192 240 330 301 317 245 184 172 174 178 179 174 174 171 166 167 175 178 179 180 180 178 180 179 177 169 169 167 155 147 131 145 151 144 143 140 142 144 141 140 146 144 132 129 135 133 131 133 135 137 138 138 139 137 137 136 137 138 140 140 140 138 136 139 141
266 224 214 94 122 122 120 144 153 163 151 26 341 234 358 12 203 166 89 75 126 236 272 268 267 280 226 203 217 194 186 178 182 176 176 175 174 178 178 180 179 182 180 181 181 179 172 165 148 132 129 132 132 131 141 144 138 140 143 143 144 146 145 141 135 139 136 133 136 137 137 137 137 136 138 139 139 139 139 138 135 139 140 143 146 143
229 179 154 70 56 87 135 165 165 144 21 354 54 67 106 95 119 124 85 93 40 266 256 253 239 255 251 240 215 190 180 174 179 183 184 183 180 178 181 186 186 185 183 181 174 171 163 148 147 145 134 136 141 146 151 145 142 141 147 148 145 145 148 149 141 138 135 133 138 140 140 140 138 138 141 141 139 137 137 139 145 144 139 130 122 120
227 298 208 90 316 134 140 114 84 2 112 96 119 139 189 157 174 185 161 152 161 187 230 249 206 216 193 164 158 148 149 148 164 193 238 193 188 189 185 185 185 185 183 176 172 157 143 142 151 158 158 161 156 148 150 143 146 148 146 146 145 147 142 142 142 143 142 140 143 142 144 143 142 145 144 141 139 138 138 140 133 123 125 120 130 133
185 210 221 121 23 198 124 113 123 132 141 150 122 311 241 251 305 266 117 112 217 209 215 195 191 168 153 146 148 147 145 138 174 207 205 208 190 190 189 181 171 161 155 156 152 136 144 151 158 164 155 143 147 151 148 142 140 140 143 144 146 149 148 151 149 147 146 147 144 143 143 151 151 145 144 144 144 142 141 138 136 141 145 134 133 137
179 232 277 113 123 134 115 123 124 121 72 25 317 318 331 296 219 175 202 121 83 136 171 192 176 167 162 158 158 161 169 154 200 204 194 192 191 189 183 176 169 166 162 158 156 153 155 161 165 158 151 151 154 155 148 147 145 150 156 157 159 158 159 158 154 159 156 153 155 159 164 157 140 142 144 143 142 144 145 144 138 133 128 128 130 135
59 13 95 81 68 51 124 100 101 235 87 37 288 307 360 70 159 172 179 151 42 106 157 185 183 171 173 167 163 186 349 32 24 40 171 182 186 182 176 168 166 163 164 166 160 158 154 153 148 151 160 163 163 155 154 152 153 161 163 162 156 159 161 155 146 139 127 137 137 142 137 148 150 146 139 130 125 119 115 120 124 138 153 158 155 158
355 12 13 92 94 105 92 76 94 81 286 267 273 323 29 171 221 178 156 86 316 5 160 190 183 176 176 165 181 164 269 330 309 325 296 177 176 182 180 171 166 163 163 166 161 143 148 157 161 163 169 171 161 154 152 158 159 162 164 161 169 164 160 158 150 145 137 137 140 145 143 144 145 141 140 141 141 145 146 157 159 159 158 153 149 145
36 41 96 32 44 63 27 78 75 237 273 295 291 302 277 189 137 110 93 323 317 344 100 169 172 179 182 180 132 69 206 288 303 304 169 178 186 183 174 158 151 160 157 152 148 153 154 161 162 160 162 163 158 154 157 161 163 165 166 166 169 164 152 148 151 152 148 141 151 148 148 150 148 143 143 148 146 148 154 153 152 152 151 150 154 153
339 360 32 39 173 156 9 93 105 110 95 74 315 336 121 72 104 68 151 250 257 329 355 139 169 170 183 174 139 125 60 1 13 98 150 162 177 172 169 155 155 157 158 138 156 160 153 154 156 156 153 150 155 159 166 168 167 168 165 175 166 148 148 148 150 149 148 143 141 142 145 148 144 138 140 145 149 147 146 151 158 161 161 160 158 151
297 4 57 156 261 79 59 69 59 337 315 11 346 82 341 42 63 118 141 95 322 313 18 98 164 175 182 180 173 174 121 79 74 123 143 150 154 168 173 168 158 160 150 154 157 154 157 153 155 151 156 160 163 167 169 169 165 165 163 145 123 135 143 145 146 141 141 144 149 148 150 150 151 147 147 146 147 146 147 160 165 168 174 170 165 160
2 5 316 34 292 38 71 91 338 319 282 319 310 9 358 348 312 139 102 105 112 98 279 53 85 162 186 177 172 178 187 167 138 148 151 172 175 171 168 172 171 168 166 157 157 154 158 152 151 147 152 162 168 170 171 173 167 158 162 155 146 145 148 145 144 144 141 144 149 151 151 154 155 153 152 156 156 153 157 158 163 169 175 173 172 171
337 331 337 321 59 232 122 321 280 310 341 352 37 283 316 16 141 203 8 73 64 98 88 63 47 102 153 175 181 182 175 159 150 153 151 161 166 160 161 156 157 160 159 144 143 157 156 150 151 154 155 160 166 162 162 169 164 164 156 141 152 154 151 148 146 147 151 145 146 154 156 155 156 157 160 160 166 160 159 159 165 169 170 177 180 177
306 319 331 65 344 17 66 339 20 357 332 3 348 5 128 40 12 339 9 33 40 75 84 60 48 50 71 166 131 16 80 165 162 122 126 141 154 159 161 157 154 160 165 163 155 150 141 142 143 148 151 156 161 159 163 163 157 145 138 147 151 155 151 148 147 148 153 156 158 159 163 160 160 161 162 164 164 164 161 163 165 168 173 182 181 179
86 236 332 30 85 57 108 59 328 314 291 309 324 356 15 359 5 18 6 352 356 25 40 39 49 66 325 53 21 355 3 61 214 141 135 151 156 159 159 158 156 160 171 163 151 157 147 149 148 151 154 157 160 164 167 155 151 146 143 148 152 154 152 152 158 159 163 161 160 164 167 166 157 158 164 169 169 167 169 170 170 172 180 185 182 179
297 308 60 321 61 82 91 51 24 108 51 31 5 317 328 332 325 353 4 2 35 46 29 30 34 31 27 39 354 32 31 11 243 185 141 147 156 161 166 164 165 166 162 153 159 158 155 154 157 160 161 159 160 160 161 155 152 151 156 157 155 152 155 160 157 159 160 158 159 161 162 160 165 169 164 165 170 173 172 173 174 178 184 191 187 186
259 50 306 228 110 100 85 40 330 161 139 101 10 6 350 355 331 329 349 14 27 46 43 47 20 15 32 39 33 25 44 21 57 153 158 155 171 167 160 157 160 161 163 158 161 164 157 159 157 160 160 155 157 157 155 157 150 156 162 159 157 154 149 152 161 163 163 165 166 162 160 156 164 170 165 164 166 157 134 38 61 185 187 185 196 198
41 332 333 41 70 87 163 328 214 297 333 317 309 335 343 347 350 351 3 359 18 49 46 68 73 22 22 22 15 15 52 43 72 130 127 163 169 165 160 156 158 163 156 153 155 158 154 155 150 151 157 156 154 153 155 155 155 159 158 160 158 157 152 155 159 164 160 159 163 163 160 165 170 170 166 165 163 162 165 175 157 35 5 317 174 180